This is the latest recevied weather packets stored in our database for station/object N8SHA. If no packets are shown the sender has not sent any weather packets the latest 10 day(s).
| Time | Temp. | Humidity | Pressure | Rain* | Wind** | Luminosity | Snow |
|---|---|---|---|---|---|---|---|
| 1777647449 | 7.22° C | 75% | 1013.8 hPa | 0 mm | - | 416 W/m² | - |
| 1777647147 | 7.22° C | 72% | 1013.9 hPa | 0 mm | - | 494 W/m² | - |
| 1777646843 | 7.22° C | 74% | 1014 hPa | 0 mm | - | 619 W/m² | - |
| 1777646539 | 6.67° C | 74% | 1014 hPa | 0 mm | - | 228 W/m² | - |
| 1777646235 | 7.22° C | 76% | 1014 hPa | 0 mm | - | 157 W/m² | - |
| 1777645933 | 7.22° C | 78% | 1013.9 hPa | 0 mm | - | 250 W/m² | - |
| 1777645629 | 6.67° C | 79% | 1014 hPa | 0 mm | - | 276 W/m² | - |
| 1777645325 | 6.11° C | 79% | 1014 hPa | 0 mm | - | 239 W/m² | - |
| 1777645021 | 5.56° C | 78% | 1013.9 hPa | 0 mm | - | 180 W/m² | - |
| 1777644718 | 6.11° C | 78% | 1013.9 hPa | 0 mm | - | 191 W/m² | - |
| 1777644415 | 6.11° C | 79% | 1014 hPa | 0 mm | - | 211 W/m² | - |
| 1777644111 | 6.11° C | 80% | 1013.9 hPa | 0 mm | - | 201 W/m² | - |
| 1777643808 | 6.11° C | 80% | 1014.1 hPa | 0 mm | - | 189 W/m² | - |
| 1777643505 | 6.11° C | 80% | 1014 hPa | 0 mm | - | 225 W/m² | - |
| 1777643202 | 6.11° C | 80% | 1014.3 hPa | 0 mm | - | 256 W/m² | - |
| 1777642898 | 6.11° C | 81% | 1014.1 hPa | 0 mm | - | 215 W/m² | - |
| 1777642595 | 5.56° C | 82% | 1014 hPa | 0 mm | - | 221 W/m² | - |
| 1777642292 | 5.56° C | 82% | 1014 hPa | 0 mm | - | 223 W/m² | - |
| 1777641989 | 5.56° C | 83% | 1014.1 hPa | 0 mm | - | 206 W/m² | - |
| 1777641685 | 5° C | 83% | 1014.2 hPa | 0 mm | - | 187 W/m² | - |
| 1777641380 | 5° C | 83% | 1014 hPa | 0 mm | - | 181 W/m² | - |
| 1777641075 | 5° C | 83% | 1014.1 hPa | 0 mm | - | 117 W/m² | - |
| 1777640772 | 5° C | 82% | 1013.9 hPa | 0 mm | - | 115 W/m² | - |
| 1777640469 | 5° C | 82% | 1013.9 hPa | 0 mm | - | 120 W/m² | - |
| 1777640166 | 5° C | 82% | 1013.9 hPa | 0 mm | - | 112 W/m² | - |
* Rain latest hour (hover to see other rain measurements)
** Current wind speed in m/s (hover to see current wind gust speed)